Location: Godiavel Galaoual
(15.2485°N, 12.6604°W)
Time: 23:49:36
(UTC+00:00)

Explorer 7 - Pass Details

Date: 22 June 2021
Orbit: 484 x 676 km, 50.3° (Epoch: 29 July)

Event Time Altitude Azimuth Distance (km) Brightness Sun altitude
Rises 18:56:02 0° 232° (SW) 2,914 10.9 5.3°
Reaches altitude 10° 18:58:23 10° 238° (WSW) 2,033 10.3 4.8°
Maximum altitude 19:02:54 45° 311° (NW) 900 8.7 3.8°
Drops below altitude 10° 19:07:33 10° 24° (NNE) 2,096 9.8 2.7°
Sets 19:10:01 0° 30° (NNE) 3,016 10.5 2.2°
